This demonstration page uses our WeatherBlox Daily Observations layout. Learn more.

Left ArrowRight Arrow

39.01783, -85.05884

Hourly Observations for September 1, 2021

Temp ( °F °C ) Dew Point ( °F °C ) Humidity (%) Winds ( mph kmh ) Pressure ( in mb ) Visibility ( mi km ) Precip ( " mm )
12:28 am 00:28 Cloudy with Light Rain 70 21.1 67 19.4 90 90 NNE 12 19 29.67 1005 5 8 0.01 0.25
12:52 am 00:52 Cloudy with Light Rain 70 21.1 67 19.4 90 90 NNE 14 22 29.66 1004 8 13 0.01 0.25
1:35 am 01:35 Cloudy with Light Rain 70 21.1 66 18.9 87 87 N 13 20 29.66 1005 7 11 0.00 0.00
1:52 am 01:52 Cloudy with Light Rain 70 21.1 66 18.9 87 87 N 15 24 29.66 1004 8 13 0.00 0.00
2:52 am 02:52 Cloudy with Light Rain 69 20.6 66 18.9 90 90 NNE 15 24 29.65 1004 6 10 0.04 1.02
3:52 am 03:52 Cloudy with Light Rain 69 20.6 66 18.9 90 90 N 13 20 29.66 1004 9 14 0.08 2.03
4:15 am 04:15 Cloudy with Light Rain 69 20.6 65 18.3 87 87 NNE 12 19 29.67 1005 10 16 0.00 0.00
4:52 am 04:52 Cloudy 69 20.6 66 18.9 90 90 N 12 19 29.65 1004 9 14 0.00 0.00
5:52 am 05:52 Cloudy 67 19.4 62 16.7 84 84 N 16 26 29.68 1005 10 16 0.00 0.00
6:10 am 06:10 Cloudy 66 18.9 61 16.1 84 84 N 14 22 29.69 1005 10 16 0.00 0.00
6:31 am 06:31 Cloudy 65 18.3 60 15.6 84 84 NNE 14 22 29.70 1006 10 16 0.00 0.00
6:52 am 06:52 Cloudy 66 18.9 60 15.6 81 81 N 10 17 29.70 1006 10 16 0.00 0.00
7:22 am 07:22 Mostly Cloudy 66 18.9 60 15.6 81 81 NNE 13 20 29.71 1006 10 16 0.00 0.00
7:52 am 07:52 Mostly Sunny 66 18.9 61 16.1 84 84 N 10 17 29.72 1006 10 16 0.00 0.00
8:52 am 08:52 Mostly Sunny 69 20.6 62 16.7 78 78 NNE 15 24 29.73 1007 10 16 0.00 0.00
9:52 am 09:52 Partly Cloudy 71 21.7 62 16.7 73 73 NNW 12 19 29.75 1008 10 16 0.00 0.00
10:52 am 10:52 Partly Cloudy 72 22.2 61 16.1 68 68 N 14 22 29.78 1008 10 16 0.00 0.00
11:52 am 11:52 Partly Cloudy 77 25 61 16.1 58 58 N 15 24 29.79 1009 10 16 0.00 0.00
12:52 pm 12:52 Mostly Cloudy 78 25.6 61 16.1 56 56 N 18 30 29.79 1009 10 16 0.00 0.00
1:52 pm 13:52 Mostly Cloudy 79 26.1 62 16.7 56 56 N 20 31 29.80 1009 10 16 0.00 0.00
2:52 pm 14:52 Mostly Cloudy 79 26.1 62 16.7 56 56 N 10 17 29.81 1010 10 16 0.00 0.00
3:52 pm 15:52 Mostly Cloudy 80 26.7 60 15.6 51 51 N 20 31 29.80 1009 10 16 0.00 0.00
4:52 pm 16:52 Mostly Cloudy 79 26.1 60 15.6 52 52 N 14 22 29.81 1010 10 16 0.00 0.00
5:52 pm 17:52 Mostly Cloudy 78 25.6 59 15 52 52 N 16 26 29.83 1010 10 16 0.00 0.00
6:52 pm 18:52 Partly Cloudy 77 25 58 14.4 52 52 N 13 20 29.84 1011 10 16 0.00 0.00
7:52 pm 19:52 Partly Cloudy 75 23.9 57 13.9 54 54 N 13 20 29.86 1011 10 16 0.00 0.00
8:52 pm 20:52 Partly Cloudy 72 22.2 55 12.8 55 55 N 13 20 29.88 1012 10 16 0.00 0.00
9:52 pm 21:52 Clear 70 21.1 54 12.2 57 57 N 12 19 29.91 1013 10 16 0.00 0.00
10:52 pm 22:52 Clear 70 21.1 52 11.1 53 53 NNE 13 20 29.93 1013 10 16 0.00 0.00
11:52 pm 23:52 Clear 69 20.6 51 10.6 53 53 NE 10 17 29.94 1014 10 16 0.00 0.00

Powered by AerisWeather